TimeEDT,TemperatureF,Dew PointF,Humidity,Sea Level PressureIn,VisibilityMPH,Wind Direction,Wind SpeedMPH,Gust SpeedMPH,PrecipitationIn,Events,Conditions,WindDirDegrees,DateUTC
12:15 AM,70.0,70.0,100,29.99,10.0,South,3.5,-,N/A,,Scattered Clouds,170,2013-06-18 04:15:00
12:35 AM,69.8,69.8,100,29.98,10.0,Calm,Calm,-,N/A,,Scattered Clouds,0,2013-06-18 04:35:00
12:55 AM,69.8,69.8,100,29.98,10.0,South,3.5,-,N/A,,Scattered Clouds,190,2013-06-18 04:55:00
1:15 AM,69.8,69.8,100,29.97,10.0,SSE,3.5,-,N/A,,Mostly Cloudy,160,2013-06-18 05:15:00
1:35 AM,69.8,69.8,100,29.96,10.0,South,3.5,-,N/A,,Mostly Cloudy,180,2013-06-18 05:35:00
1:55 AM,70.0,70.0,100,29.96,10.0,South,3.5,-,N/A,,Mostly Cloudy,170,2013-06-18 05:55:00
2:15 AM,69.8,69.8,100,29.94,10.0,South,4.6,-,N/A,Rain,Light Rain,170,2013-06-18 06:15:00
2:35 AM,70.0,70.0,100,29.93,10.0,South,3.5,-,N/A,,Overcast,180,2013-06-18 06:35:00
2:55 AM,69.8,69.8,100,29.92,10.0,South,4.6,-,N/A,,Overcast,190,2013-06-18 06:55:00
3:15 AM,70.0,70.0,100,29.92,10.0,SSW,6.9,-,N/A,,Overcast,200,2013-06-18 07:15:00
3:35 AM,69.8,69.8,100,29.91,10.0,South,3.5,-,N/A,,Mostly Cloudy,190,2013-06-18 07:35:00
3:55 AM,69.8,69.8,100,29.91,10.0,South,4.6,-,N/A,,Overcast,190,2013-06-18 07:55:00
4:15 AM,69.8,69.8,100,29.91,10.0,South,4.6,-,N/A,,Overcast,190,2013-06-18 08:15:00
4:35 AM,69.8,69.8,100,29.90,10.0,SSW,3.5,-,N/A,,Overcast,200,2013-06-18 08:35:00
4:55 AM,69.8,69.8,100,29.91,10.0,Calm,Calm,-,N/A,,Overcast,0,2013-06-18 08:55:00
5:15 AM,70.0,70.0,100,29.91,10.0,Calm,Calm,-,N/A,,Overcast,0,2013-06-18 09:15:00
5:35 AM,70.2,70.2,100,29.91,10.0,SSW,4.6,-,N/A,,Overcast,200,2013-06-18 09:35:00
5:55 AM,70.2,70.2,100,29.92,10.0,SSW,3.5,-,N/A,,Overcast,200,2013-06-18 09:55:00
6:15 AM,70.2,70.2,100,29.93,10.0,South,3.5,-,N/A,,Overcast,190,2013-06-18 10:15:00
6:35 AM,70.3,70.3,100,29.93,10.0,South,3.5,-,N/A,,Overcast,180,2013-06-18 10:35:00
6:55 AM,70.3,70.3,100,29.92,10.0,South,4.6,-,N/A,,Overcast,180,2013-06-18 10:55:00
7:15 AM,70.3,70.3,100,29.92,7.0,Calm,Calm,-,N/A,,Overcast,0,2013-06-18 11:15:00
7:35 AM,70.7,70.7,100,29.92,7.0,South,4.6,-,N/A,,Overcast,190,2013-06-18 11:35:00
7:55 AM,70.7,70.7,100,29.92,10.0,South,4.6,-,N/A,,Overcast,180,2013-06-18 11:55:00
8:15 AM,70.7,70.7,100,29.92,4.0,South,4.6,-,N/A,Rain,Light Rain,180,2013-06-18 12:15:00
8:35 AM,71.6,71.6,100,29.92,10.0,SSW,4.6,-,N/A,,Mostly Cloudy,210,2013-06-18 12:35:00
8:55 AM,72.0,72.0,100,29.92,10.0,SSW,3.5,-,N/A,,Overcast,200,2013-06-18 12:55:00
9:15 AM,72.7,70.7,93,29.92,10.0,SSW,5.8,-,N/A,,Overcast,210,2013-06-18 13:15:00
9:35 AM,72.5,70.9,95,29.92,10.0,South,4.6,-,N/A,,Overcast,190,2013-06-18 13:35:00
9:55 AM,73.0,70.2,91,29.92,10.0,South,6.9,-,N/A,,Mostly Cloudy,180,2013-06-18 13:55:00
10:15 AM,72.5,70.5,93,29.91,10.0,SSW,4.6,-,N/A,,Overcast,200,2013-06-18 14:15:00
10:35 AM,72.7,70.0,91,29.91,10.0,SW,5.8,-,N/A,,Overcast,220,2013-06-18 14:35:00
10:55 AM,73.6,70.0,88,29.91,10.0,SSW,4.6,-,N/A,,Overcast,210,2013-06-18 14:55:00
11:15 AM,75.2,70.0,84,29.90,10.0,South,3.5,-,N/A,,Mostly Cloudy,190,2013-06-18 15:15:00
11:35 AM,76.8,70.3,80,29.90,10.0,Calm,Calm,-,N/A,,Mostly Cloudy,0,2013-06-18 15:35:00
11:55 AM,76.8,69.4,78,29.90,10.0,SW,5.8,-,N/A,,Scattered Clouds,220,2013-06-18 15:55:00
12:15 PM,76.3,68.9,78,29.90,10.0,SW,5.8,-,N/A,,Scattered Clouds,230,2013-06-18 16:15:00
12:35 PM,76.1,68.9,78,29.90,10.0,WSW,6.9,-,N/A,,Scattered Clouds,240,2013-06-18 16:35:00
12:55 PM,76.6,69.6,79,29.87,10.0,West,4.6,-,N/A,,Scattered Clouds,270,2013-06-18 16:55:00
1:15 PM,76.5,69.8,80,29.86,10.0,SSW,4.6,-,N/A,Rain,Light Rain,200,2013-06-18 17:15:00
1:35 PM,75.7,70.3,83,29.87,10.0,SSW,4.6,-,N/A,Rain,Light Rain,210,2013-06-18 17:35:00
1:55 PM,76.1,71.4,85,29.86,10.0,South,6.9,-,N/A,Rain,Light Rain,190,2013-06-18 17:55:00
2:15 PM,76.6,70.0,80,29.84,10.0,SSW,6.9,-,N/A,,Scattered Clouds,210,2013-06-18 18:15:00
2:35 PM,79.0,70.9,76,29.84,10.0,South,8.1,-,N/A,,Clear,190,2013-06-18 18:35:00
2:55 PM,78.4,69.1,73,29.83,10.0,SSW,6.9,-,N/A,,Scattered Clouds,200,2013-06-18 18:55:00
3:15 PM,78.8,69.6,73,29.83,10.0,SSW,8.1,-,N/A,,Scattered Clouds,210,2013-06-18 19:15:00
3:35 PM,80.8,69.8,69,29.82,10.0,WSW,9.2,-,N/A,,Clear,240,2013-06-18 19:35:00
3:55 PM,79.7,68.5,69,29.82,10.0,SW,8.1,-,N/A,,Scattered Clouds,220,2013-06-18 19:55:00
4:15 PM,79.0,68.2,69,29.82,10.0,WSW,5.8,-,N/A,,Scattered Clouds,250,2013-06-18 20:15:00
4:35 PM,78.3,68.7,72,29.83,10.0,Calm,Calm,-,N/A,,Clear,0,2013-06-18 20:35:00
4:55 PM,78.8,69.8,74,29.83,10.0,Calm,Calm,-,N/A,,Clear,0,2013-06-18 20:55:00
5:15 PM,78.1,69.3,74,29.82,10.0,WSW,3.5,-,N/A,,Clear,250,2013-06-18 21:15:00
5:35 PM,75.7,70.0,82,29.82,5.0,WSW,3.5,-,0.01,Rain,Rain,240,2013-06-18 21:35:00
5:55 PM,73.6,71.2,92,29.82,3.0,Calm,Calm,-,0.05,Rain,Heavy Rain,0,2013-06-18 21:55:00
6:15 PM,72.9,72.9,100,29.84,10.0,Calm,Calm,-,N/A,,Scattered Clouds,0,2013-06-18 22:15:00
6:35 PM,69.3,69.3,100,29.84,10.0,Calm,Calm,-,0.02,Rain,Rain,0,2013-06-18 22:35:00
6:55 PM,68.4,68.4,100,29.85,1.8,Calm,Calm,-,0.19,Rain,Heavy Rain,0,2013-06-18 22:55:00
7:15 PM,67.5,67.5,100,29.86,1.2,Calm,Calm,-,0.38,Rain,Heavy Rain,0,2013-06-18 23:15:00
7:35 PM,66.7,66.7,100,29.84,0.5,Calm,Calm,-,1.08,Rain,Heavy Rain,0,2013-06-18 23:35:00
7:55 PM,67.1,67.1,100,29.84,2.5,Calm,Calm,-,1.14,Rain,Heavy Rain,0,2013-06-18 23:55:00
8:15 PM,67.5,67.5,100,29.83,10.0,Calm,Calm,-,0.01,,Scattered Clouds,0,2013-06-19 00:15:00
8:35 PM,67.3,67.3,100,29.83,10.0,Calm,Calm,-,0.01,,Clear,0,2013-06-19 00:35:00
8:55 PM,66.7,66.7,100,29.85,5.0,Calm,Calm,-,0.01,,Clear,0,2013-06-19 00:55:00
9:15 PM,66.4,66.4,100,29.86,10.0,Calm,Calm,-,N/A,,Scattered Clouds,0,2013-06-19 01:15:00
9:35 PM,66.6,66.6,100,29.88,10.0,Calm,Calm,-,N/A,,Mostly Cloudy,0,2013-06-19 01:35:00
9:55 PM,67.1,67.1,100,29.89,7.0,Calm,Calm,-,N/A,,Scattered Clouds,0,2013-06-19 01:55:00
10:15 PM,67.1,67.1,100,29.90,10.0,Calm,Calm,-,N/A,,Clear,0,2013-06-19 02:15:00
10:35 PM,66.6,66.6,100,29.91,10.0,Calm,Calm,-,N/A,,Mostly Cloudy,0,2013-06-19 02:35:00
10:55 PM,66.7,66.7,100,29.91,10.0,Calm,Calm,-,N/A,,Scattered Clouds,0,2013-06-19 02:55:00
11:15 PM,67.3,67.3,100,29.92,10.0,Calm,Calm,-,N/A,,Scattered Clouds,0,2013-06-19 03:15:00
11:35 PM,67.3,67.3,100,29.92,10.0,Calm,Calm,-,N/A,,Scattered Clouds,0,2013-06-19 03:35:00
11:55 PM,67.3,67.3,100,29.92,7.0,Calm,Calm,-,N/A,,Scattered Clouds,0,2013-06-19 03:55:00